DELTA 1 DEB, 40764

Orbit data source: Space-Track

DELTA 1 DEB, 40764 is space debris in SSO originally from a launch on Thu, 29 Jul 1976 UTC launched from the Air Force Western Test Range (AFWTR). Debris objects in space refer to the collection of defunct objects orbiting the Earth. Examples of debris include non-operational satellites, rocket bodies, and fragments generated from explosions, collisions, or faulty payload assembly.

Loading next visibility...
Identifier
40764, 1976-077GH
Orbit
SSO
Country
Flag of USUS
Related business
Manufacturer
Unknown
Mission
Spacecraft
Bus & Motor
Unknown
Mass
Unknown
Launch date (UTC)
1976-07-29 (49 years ago)
Launch vehicle
Unknown
Launch site
Air Force Western Test Range (AFWTR)
Object type
Payload
Rocket body
Debris
Shape & HBR
Unknown shape, 0.1 m
Radar Cross Section
Small (<0.1 m²)

Expand to show TLE details & history
Last TLE update: 1 day ago

TLE from 1 day ago
0 DELTA 1 DEB
1 40764U 76077GH  25341.64987196  .00000015  00000-0  44884-3 0  9990
2 40764 102.1811 318.6261 0001426  35.4513 324.6645 12.40705888878071
Epoch: 2025-12-07T15:35Z
TLE epoch observation values (Epoch: 2025-12-07T15:35:48.937Z)
Latitude
0.00001°
Longitude
8.01198°
Altitude
1,505.238 km
Speed
7.112 km/s
True Right ascension
21h 14m 30s
True Declination
0° 00' 00"
Sunlit
Object was in daylight at epoch
Visualization orbit readout
Latitude
Unknown
Longitude
Unknown
Altitude
Unknown
Speed
Unknown
Apparent Right ascension
Unknown
Apparent Declination
Unknown
Sunlit
N/A
Visualization observer readout
Local Sidereal Time
00:27:58
Azimuth
Unknown
Elevation
Unknown
Doppler factor
Unknown
Orbital elements
Apogee altitude
1,502.32 km
Perigee altitude
1,500.073 km
Semi-major axis
7,879.334 km
Eccentricity
0.00014
Inclination
102.1811°
RAAN
318.6261°
Arg. of periapsis
35.4513°
True anomaly
324.65505°
Mean anomaly
324.6645°
Eccentric anomaly
324.65977°
Mean motion
3.10319 °/min
Orbital period
116.01 mins
BSTAR
0.00044884
Loading maneuver chart data...
Computing Atmospheric mass density...
Loading historical data...
Loading historical data...
Loading historical data...
Loading historical data...
Loading historical data...
Loading historical data...
Loading historical data...

Documentation

Showing up to 5 results
|